Tracking 29747 objects as of 10-Oct-2024
HD Live streaming from Space Station
objects crossing your sky now

DELTA 1 DEB

Track DELTA 1 DEB now!
10-day predictions


NORAD ID: 21501
Int'l Code: 1975-052FW
Perigee: 1,049.1 km
Apogee: 1,915.0 km
Inclination: 99.8 °
Period: 115.4 minutes
Semi major axis: 7853 km
RCS: 0.0598 m2 (small)
Launch date: June 12, 1975
Source: United States (US)
Launch site: AIR FORCE WESTERN TEST RANGE (AFWTR)

Note: This is SATELLITE DEBRIS
Your satellite tracking list
Your tracking list is empty




NASA's NSSDC Master Catalog

Two Line Element Set (TLE):
1 21501U 75052FW  24283.51113013  .00000628  00000-0  25947-2 0  9997
2 21501  99.7645 277.1811 0551301  29.3000 124.0607 12.47517277520579
Source of the keplerian elements: AFSPC